Terug naar catalogus

NOAA 16 DEB

ActiefSSO
NORAD 42375·DEBRIS·🇺🇸 United States

Gelanceerd Sep 21, 2000 vanaf Vandenberg Space Force Base

Loading…

Volgende Passages (komende 24 uur)

TLE

VersSource: Space-Track

Epoch: Sep 14, 2026, 10:09 UTC

1 42375U 00055RT  26257.42296775  .00002142  00000-0  85429-3 0  9995
2 42375  98.6603 330.3848 0005160 219.0918 140.9892 14.29576234539010

Volg NOAA 16 DEB in realtime met AllMySat

Download on the App Store